• In Hungary
  • List of Countries
  • For 7 days
  • Water Temperature
  • Satellite Maps
  • Weather Map
  • News
  • Weather Widgets
  • user-avatar
    Login

    Hourly Weather Shaki

    Today, 20 January, Saturday

    Time Temperature Precipitation Wind Pressure Humidity
    00:00 +7°C° 0 mm 2 mps 732 mmHg 44%
    01:00 +7°C° 0 mm 2 mps 732 mmHg 45%
    02:00 +7°C° 0 mm 2 mps 732 mmHg 46%
    03:00 +6°C° 0 mm 2 mps 733 mmHg 46%
    04:00 +6°C° 0 mm 2 mps 733 mmHg 49%
    05:00 +6°C° 0 mm 2 mps 733 mmHg 51%
    06:00 +7°C° 0 mm 2 mps 734 mmHg 53%
    07:00 +7°C° 0 mm 2 mps 734 mmHg 56%
    08:00 +7°C° 0 mm 2 mps 735 mmHg 58%
    09:00 +9°C° 0 mm 1 mps 736 mmHg 61%
    10:00 +10°C° 0.1 mm 1 mps 736 mmHg 58%
    11:00 +10°C° 0.1 mm 2 mps 736 mmHg 56%
    12:00 +12°C° 0.1 mm 2 mps 737 mmHg 54%
    13:00 +12°C° 0 mm 2 mps 737 mmHg 54%
    14:00 +12°C° 0 mm 2 mps 737 mmHg 54%
    15:00 +12°C° 0 mm 2 mps 737 mmHg 54%
    16:00 +10°C° 0 mm 2 mps 737 mmHg 59%
    17:00 +8°C° 0 mm 2 mps 738 mmHg 64%
    18:00 +7°C° 0 mm 2 mps 738 mmHg 69%
    19:00 +7°C° 0 mm 2 mps 738 mmHg 71%
    20:00 +6°C° 0 mm 2 mps 738 mmHg 72%
    21:00 +6°C° 0 mm 2 mps 739 mmHg 73%
    22:00 +5°C° 0 mm 2 mps 739 mmHg 72%
    23:00 +6°C° 0 mm 1 mps 739 mmHg 71%

    Tomorrow, 21 January, Sunday

    Time Temperature Precipitation Wind Pressure Humidity
    00:00 +6°C° 0 mm 1 mps 739 mmHg 71%
    01:00 +6°C° 0 mm 1 mps 739 mmHg 68%
    02:00 +5°C° 0 mm 1 mps 739 mmHg 66%
    03:00 +5°C° 0 mm 1 mps 738 mmHg 64%
    04:00 +4°C° 0 mm 2 mps 738 mmHg 62%
    05:00 +4°C° 0 mm 2 mps 738 mmHg 60%
    06:00 +4°C° 0 mm 2 mps 738 mmHg 58%
    07:00 +5°C° 0 mm 2 mps 737 mmHg 54%
    08:00 +6°C° 0 mm 2 mps 737 mmHg 51%
    09:00 +7°C° 0 mm 2 mps 737 mmHg 48%
    10:00 +9°C° 0 mm 2 mps 737 mmHg 45%
    11:00 +10°C° 0 mm 3 mps 736 mmHg 42%
    12:00 +11°C° 0 mm 3 mps 735 mmHg 39%
    13:00 +12°C° 0 mm 3 mps 735 mmHg 38%
    14:00 +12°C° 0 mm 3 mps 735 mmHg 37%
    15:00 +12°C° 0 mm 4 mps 735 mmHg 36%
    16:00 +11°C° 0 mm 3 mps 735 mmHg 37%
    17:00 +10°C° 0 mm 3 mps 735 mmHg 38%
    18:00 +8°C° 0 mm 3 mps 735 mmHg 39%
    19:00 +8°C° 0 mm 3 mps 735 mmHg 38%
    20:00 +8°C° 0 mm 3 mps 735 mmHg 37%
    21:00 +8°C° 0 mm 3 mps 735 mmHg 36%
    22:00 +8°C° 0 mm 3 mps 735 mmHg 35%
    23:00 +7°C° 0 mm 3 mps 735 mmHg 35%

    Day after tomorrow, 22 January, Monday

    Time Temperature Precipitation Wind Pressure Humidity
    00:00 +7°C° 0 mm 3 mps 735 mmHg 34%
    01:00 +7°C° 0 mm 2 mps 735 mmHg 34%
    02:00 +7°C° 0 mm 2 mps 735 mmHg 34%
    03:00 +7°C° 0 mm 2 mps 735 mmHg 33%
    04:00 +7°C° 0 mm 2 mps 735 mmHg 33%
    05:00 +7°C° 0 mm 2 mps 734 mmHg 33%
    06:00 +7°C° 0 mm 1 mps 734 mmHg 33%
    07:00 +8°C° 0 mm 1 mps 734 mmHg 33%
    08:00 +9°C° 0 mm 1 mps 734 mmHg 34%
    09:00 +10°C° 0 mm 1 mps 733 mmHg 34%
    10:00 +11°C° 0 mm 1 mps 733 mmHg 33%
    11:00 +12°C° 0 mm 1 mps 732 mmHg 32%
    12:00 +13°C° 0 mm 1 mps 731 mmHg 31%
    13:00 +13°C° 0 mm 1 mps 731 mmHg 32%
    14:00 +13°C° 0 mm 1 mps 730 mmHg 33%
    15:00 +13°C° 0 mm 2 mps 730 mmHg 34%
    16:00 +12°C° 0 mm 2 mps 730 mmHg 35%
    17:00 +9°C° 0 mm 2 mps 730 mmHg 36%
    18:00 +8°C° 0 mm 2 mps 730 mmHg 38%
    19:00 +8°C° 0 mm 2 mps 729 mmHg 37%
    20:00 +7°C° 0 mm 2 mps 729 mmHg 36%
    21:00 +7°C° 0 mm 2 mps 729 mmHg 35%
    22:00 +7°C° 0 mm 3 mps 729 mmHg 33%
    23:00 +7°C° 0 mm 3 mps 729 mmHg 32%

    23 January, Tuesday

    Time Temperature Precipitation Wind Pressure Humidity
    00:00 +7°C° 0 mm 3 mps 729 mmHg 31%
    01:00 +7°C° 0 mm 3 mps 729 mmHg 31%
    02:00 +7°C° 0 mm 3 mps 729 mmHg 30%
    03:00 +6°C° 0 mm 4 mps 729 mmHg 30%
    04:00 +6°C° 0 mm 4 mps 729 mmHg 31%
    05:00 +6°C° 0 mm 4 mps 729 mmHg 32%
    06:00 +6°C° 0 mm 4 mps 729 mmHg 33%
    07:00 +7°C° 0 mm 4 mps 729 mmHg 33%
    08:00 +7°C° 0 mm 4 mps 729 mmHg 34%
    09:00 +8°C° 0 mm 4 mps 729 mmHg 35%
    10:00 +11°C° 0 mm 4 mps 729 mmHg 33%
    11:00 +12°C° 0 mm 4 mps 729 mmHg 32%
    12:00 +14°C° 0 mm 5 mps 729 mmHg 31%
    13:00 +14°C° 0 mm 4 mps 729 mmHg 31%
    14:00 +14°C° 0 mm 4 mps 729 mmHg 32%
    15:00 +14°C° 0 mm 4 mps 728 mmHg 32%
    16:00 +12°C° 0 mm 4 mps 729 mmHg 34%
    17:00 +11°C° 0 mm 4 mps 729 mmHg 36%
    18:00 +9°C° 0 mm 3 mps 730 mmHg 37%
    19:00 +9°C° 0 mm 3 mps 730 mmHg 38%
    20:00 +9°C° 0 mm 3 mps 730 mmHg 39%
    21:00 +9°C° 0 mm 3 mps 730 mmHg 40%
    22:00 +9°C° 0 mm 3 mps 730 mmHg 41%
    23:00 +8°C° 0 mm 2 mps 730 mmHg 42%

    24 January, Wednesday

    Time Temperature Precipitation Wind Pressure Humidity
    00:00 +8°C° 0 mm 2 mps 730 mmHg 43%
    01:00 +8°C° 0 mm 2 mps 730 mmHg 45%
    02:00 +8°C° 0 mm 2 mps 731 mmHg 46%
    03:00 +7°C° 0 mm 2 mps 731 mmHg 48%
    04:00 +7°C° 0 mm 2 mps 731 mmHg 49%
    05:00 +7°C° 0 mm 2 mps 731 mmHg 50%
    06:00 +7°C° 0 mm 2 mps 732 mmHg 51%
    07:00 +7°C° 0 mm 2 mps 732 mmHg 51%
    08:00 +8°C° 0 mm 2 mps 733 mmHg 50%
    09:00 +8°C° 0 mm 2 mps 733 mmHg 50%
    10:00 +9°C° 0 mm 2 mps 733 mmHg 48%
    11:00 +10°C° 0 mm 2 mps 733 mmHg 46%
    12:00 +11°C° 0 mm 3 mps 733 mmHg 44%
    13:00 +11°C° 0 mm 3 mps 733 mmHg 45%
    14:00 +11°C° 0 mm 3 mps 734 mmHg 46%
    15:00 +10°C° 0 mm 3 mps 734 mmHg 47%
    16:00 +10°C° 0.1 mm 3 mps 734 mmHg 51%
    17:00 +9°C° 0.1 mm 2 mps 735 mmHg 55%
    18:00 +8°C° 0.1 mm 2 mps 735 mmHg 59%
    19:00 +8°C° 0.1 mm 2 mps 736 mmHg 60%
    20:00 +7°C° 0.1 mm 2 mps 736 mmHg 61%
    21:00 +7°C° 0.1 mm 2 mps 737 mmHg 62%
    22:00 +6°C° 0 mm 2 mps 737 mmHg 64%
    23:00 +7°C° 0 mm 1 mps 737 mmHg 66%

    25 January, Thursday

    Time Temperature Precipitation Wind Pressure Humidity
    00:00 +6°C° 0 mm 1 mps 738 mmHg 67%
    01:00 +6°C° 0 mm 1 mps 738 mmHg 69%
    02:00 +6°C° 0 mm 1 mps 739 mmHg 70%
    03:00 +5°C° 0 mm 1 mps 739 mmHg 71%
    04:00 +5°C° 0 mm 1 mps 739 mmHg 73%
    05:00 +5°C° 0 mm 1 mps 740 mmHg 74%
    06:00 +4°C° 0 mm 1 mps 740 mmHg 76%
    07:00 +5°C° 0 mm 1 mps 741 mmHg 75%
    08:00 +5°C° 0 mm 1 mps 741 mmHg 74%
    09:00 +6°C° 0 mm 1 mps 742 mmHg 73%
    10:00 +5°C° 0 mm 2 mps 742 mmHg 70%
    11:00 +6°C° 0 mm 2 mps 742 mmHg 67%
    12:00 +7°C° 0 mm 2 mps 742 mmHg 65%
    13:00 +7°C° 0 mm 2 mps 742 mmHg 65%
    14:00 +7°C° 0 mm 2 mps 742 mmHg 64%
    15:00 +7°C° 0 mm 2 mps 742 mmHg 64%
    16:00 +7°C° 0 mm 1 mps 742 mmHg 68%
    17:00 +6°C° 0 mm 1 mps 743 mmHg 72%
    18:00 +6°C° 0 mm 1 mps 743 mmHg 76%
    19:00 +5°C° 0.1 mm 1 mps 743 mmHg 77%
    20:00 +4°C° 0.1 mm 2 mps 744 mmHg 77%
    21:00 +4°C° 0.1 mm 2 mps 744 mmHg 78%
    22:00 +3°C° 0.1 mm 2 mps 744 mmHg 78%
    23:00 +3°C° 0.1 mm 2 mps 744 mmHg 79%
    Show more